Total_Precipitation_Accumulation
0.18 0.16 0.20 0.33 0.41 0.38 0.42 0.48 0.52 0.55 0.63 0.77 0.88 0.90 0.86 0.77 0.63 0.55 0.48 0.39 0.33 0.34 0.41 0.47 0.58 0.63 0.70 0.84 1.07 1.11 0.91 0.70 0.63 0.63 0.62 0.52 0.46 0.44 0.41 0.41 0.40 0.43 0.41 0.42
0.19 0.13 0.15 0.16 0.15 0.17 0.20 0.25 0.31 0.43 0.56 0.62 0.65 0.65 0.58 0.46 0.33 0.31 0.29 0.26 0.23 0.24 0.30 0.32 0.36 0.44 0.56 0.64 0.71 0.70 0.61 0.52 0.47 0.43 0.39 0.38 0.38 0.36 0.32 0.29 0.26 0.31 0.33 0.37
0.30 0.15 0.16 0.15 0.10 0.13 0.21 0.23 0.30 0.47 0.57 0.49 0.44 0.41 0.38 0.28 0.19 0.19 0.18 0.18 0.17 0.18 0.23 0.23 0.26 0.29 0.30 0.36 0.46 0.44 0.36 0.30 0.30 0.31 0.29 0.26 0.28 0.29 0.29 0.27 0.24 0.25 0.29 0.36
0.37 0.31 0.27 0.11 0.06 0.09 0.14 0.20 0.27 0.36 0.37 0.31 0.27 0.23 0.20 0.15 0.13 0.14 0.14 0.15 0.15 0.16 0.18 0.20 0.23 0.26 0.28 0.30 0.34 0.36 0.29 0.23 0.22 0.25 0.26 0.27 0.29 0.30 0.29 0.27 0.25 0.30 0.32 0.37
0.42 0.43 0.22 0.07 0.05 0.06 0.08 0.11 0.13 0.15 0.15 0.13 0.12 0.14 0.15 0.13 0.12 0.12 0.13 0.14 0.15 0.17 0.20 0.22 0.25 0.27 0.24 0.24 0.24 0.26 0.24 0.24 0.22 0.24 0.26 0.25 0.24 0.26 0.25 0.25 0.24 0.29 0.37 0.37
0.42 0.43 0.28 0.11 0.07 0.06 0.08 0.12 0.08 0.08 0.08 0.08 0.09 0.15 0.16 0.12 0.10 0.11 0.13 0.14 0.16 0.18 0.22 0.22 0.23 0.25 0.24 0.24 0.23 0.22 0.25 0.27 0.30 0.28 0.25 0.24 0.26 0.27 0.25 0.24 0.25 0.28 0.32 0.32
0.37 0.42 0.21 0.09 0.08 0.09 0.15 0.14 0.08 0.06 0.06 0.07 0.10 0.12 0.11 0.11 0.10 0.10 0.15 0.17 0.16 0.19 0.20 0.21 0.22 0.25 0.26 0.27 0.29 0.29 0.29 0.31 0.30 0.27 0.26 0.27 0.28 0.31 0.29 0.27 0.26 0.27 0.27 0.27
0.35 0.41 0.24 0.09 0.10 0.12 0.12 0.08 0.06 0.06 0.06 0.06 0.08 0.09 0.08 0.10 0.09 0.09 0.12 0.15 0.16 0.18 0.18 0.20 0.21 0.22 0.23 0.24 0.30 0.31 0.28 0.28 0.27 0.25 0.26 0.28 0.30 0.27 0.25 0.24 0.25 0.24 0.23 0.23
0.28 0.23 0.14 0.12 0.12 0.12 0.11 0.09 0.06 0.05 0.06 0.06 0.07 0.08 0.08 0.08 0.09 0.10 0.12 0.13 0.14 0.16 0.17 0.20 0.23 0.23 0.25 0.28 0.32 0.29 0.26 0.26 0.28 0.30 0.32 0.32 0.33 0.29 0.27 0.25 0.25 0.27 0.30 0.30
0.23 0.14 0.10 0.12 0.13 0.12 0.10 0.09 0.07 0.06 0.07 0.10 0.10 0.11 0.12 0.09 0.09 0.10 0.12 0.13 0.15 0.17 0.20 0.22 0.26 0.28 0.30 0.32 0.33 0.33 0.33 0.33 0.36 0.36 0.37 0.38 0.35 0.32 0.29 0.27 0.31 0.33 0.32 0.33
0.23 0.17 0.13 0.12 0.11 0.10 0.09 0.09 0.09 0.09 0.09 0.11 0.13 0.12 0.14 0.13 0.13 0.12 0.12 0.12 0.15 0.16 0.17 0.20 0.23 0.24 0.26 0.27 0.29 0.29 0.31 0.34 0.39 0.41 0.45 0.45 0.40 0.37 0.37 0.36 0.38 0.39 0.36 0.37
0.27 0.23 0.22 0.17 0.14 0.11 0.10 0.12 0.12 0.14 0.12 0.11 0.11 0.12 0.13 0.16 0.19 0.19 0.16 0.16 0.16 0.18 0.19 0.18 0.19 0.19 0.20 0.23 0.25 0.26 0.30 0.34 0.37 0.41 0.45 0.47 0.49 0.47 0.48 0.46 0.47 0.44 0.43 0.40
0.24 0.23 0.22 0.19 0.14 0.12 0.15 0.15 0.12 0.13 0.13 0.11 0.11 0.13 0.14 0.16 0.19 0.24 0.26 0.28 0.28 0.24 0.23 0.22 0.21 0.22 0.22 0.24 0.25 0.28 0.30 0.34 0.37 0.39 0.41 0.44 0.47 0.51 0.53 0.51 0.47 0.44 0.43 0.43
0.16 0.16 0.17 0.17 0.15 0.13 0.13 0.13 0.12 0.11 0.10 0.10 0.12 0.16 0.18 0.21 0.22 0.25 0.28 0.30 0.34 0.31 0.29 0.27 0.27 0.28 0.27 0.26 0.28 0.31 0.32 0.37 0.40 0.41 0.42 0.45 0.46 0.46 0.50 0.52 0.49 0.42 0.38 0.39
0.12 0.12 0.15 0.15 0.15 0.14 0.12 0.13 0.13 0.11 0.10 0.10 0.11 0.16 0.21 0.22 0.21 0.21 0.23 0.24 0.27 0.28 0.26 0.27 0.28 0.28 0.27 0.27 0.30 0.34 0.35 0.34 0.37 0.40 0.42 0.45 0.46 0.47 0.45 0.45 0.45 0.43 0.40 0.39
0.10 0.11 0.11 0.14 0.15 0.15 0.14 0.14 0.16 0.15 0.12 0.12 0.13 0.15 0.21 0.22 0.21 0.20 0.21 0.22 0.24 0.26 0.25 0.27 0.29 0.29 0.30 0.30 0.28 0.29 0.32 0.39 0.40 0.40 0.40 0.42 0.45 0.46 0.45 0.47 0.49 0.49 0.48 0.50
0.13 0.14 0.13 0.13 0.14 0.15 0.16 0.17 0.17 0.16 0.15 0.15 0.17 0.20 0.25 0.26 0.24 0.22 0.21 0.21 0.24 0.26 0.28 0.28 0.29 0.29 0.31 0.32 0.29 0.28 0.33 0.41 0.43 0.39 0.36 0.40 0.47 0.49 0.47 0.47 0.48 0.50 0.50 0.53
0.15 0.16 0.15 0.16 0.17 0.17 0.18 0.18 0.17 0.17 0.16 0.16 0.19 0.23 0.30 0.31 0.27 0.24 0.22 0.23 0.26 0.26 0.28 0.31 0.30 0.30 0.29 0.29 0.31 0.31 0.33 0.38 0.42 0.42 0.42 0.45 0.50 0.51 0.52 0.49 0.47 0.46 0.46 0.49
0.16 0.17 0.16 0.15 0.16 0.17 0.21 0.20 0.18 0.16 0.15 0.18 0.21 0.29 0.38 0.37 0.32 0.28 0.27 0.28 0.28 0.28 0.27 0.31 0.38 0.33 0.32 0.32 0.34 0.32 0.34 0.36 0.40 0.45 0.48 0.54 0.55 0.53 0.51 0.49 0.48 0.47 0.50 0.50
0.16 0.16 0.15 0.14 0.13 0.15 0.21 0.23 0.21 0.18 0.19 0.21 0.27 0.35 0.41 0.38 0.34 0.32 0.32 0.32 0.31 0.31 0.32 0.35 0.38 0.34 0.33 0.35 0.39 0.35 0.36 0.40 0.43 0.46 0.49 0.50 0.51 0.55 0.56 0.54 0.54 0.52 0.51 0.52
0.17 0.18 0.16 0.15 0.15 0.16 0.21 0.23 0.21 0.22 0.23 0.26 0.32 0.42 0.44 0.42 0.40 0.39 0.38 0.37 0.33 0.34 0.36 0.40 0.40 0.38 0.39 0.43 0.43 0.40 0.43 0.44 0.45 0.48 0.49 0.51 0.53 0.54 0.58 0.58 0.57 0.57 0.57 0.54
0.19 0.21 0.20 0.19 0.20 0.19 0.20 0.22 0.20 0.22 0.22 0.22 0.28 0.35 0.41 0.44 0.42 0.39 0.38 0.39 0.39 0.43 0.39 0.38 0.42 0.48 0.50 0.50 0.44 0.46 0.50 0.51 0.50 0.51 0.55 0.55 0.58 0.58 0.57 0.58 0.58 0.57 0.56 0.56
0.18 0.21 0.23 0.21 0.21 0.21 0.21 0.22 0.22 0.23 0.24 0.25 0.27 0.30 0.38 0.40 0.39 0.38 0.39 0.37 0.40 0.46 0.43 0.41 0.49 0.53 0.54 0.47 0.45 0.51 0.57 0.57 0.56 0.57 0.59 0.62 0.64 0.63 0.60 0.57 0.57 0.58 0.57 0.56
0.22 0.23 0.23 0.22 0.22 0.24 0.25 0.22 0.20 0.24 0.26 0.29 0.29 0.34 0.40 0.43 0.41 0.39 0.42 0.46 0.48 0.49 0.46 0.51 0.58 0.55 0.53 0.46 0.47 0.54 0.57 0.58 0.59 0.59 0.59 0.60 0.63 0.65 0.65 0.65 0.63 0.60 0.60 0.59
0.28 0.28 0.26 0.26 0.28 0.30 0.31 0.26 0.24 0.25 0.28 0.33 0.36 0.41 0.43 0.48 0.52 0.48 0.46 0.46 0.50 0.52 0.49 0.55 0.61 0.62 0.55 0.52 0.53 0.56 0.57 0.60 0.63 0.62 0.60 0.62 0.65 0.69 0.71 0.71 0.70 0.67 0.65 0.65
0.29 0.27 0.27 0.28 0.31 0.35 0.35 0.33 0.33 0.31 0.35 0.42 0.49 0.52 0.48 0.48 0.49 0.50 0.49 0.48 0.50 0.55 0.53 0.53 0.56 0.57 0.54 0.56 0.59 0.59 0.59 0.63 0.64 0.63 0.63 0.64 0.66 0.70 0.73 0.74 0.73 0.74 0.74 0.73
0.32 0.30 0.30 0.30 0.31 0.33 0.33 0.36 0.40 0.42 0.45 0.52 0.59 0.62 0.57 0.55 0.55 0.57 0.57 0.55 0.54 0.54 0.53 0.52 0.54 0.56 0.59 0.60 0.61 0.62 0.61 0.64 0.67 0.67 0.68 0.70 0.72 0.74 0.77 0.80 0.81 0.81 0.83 0.85